Louisa, VA

2:40 AM EST on February 11, 2016 (GMT -0500)
Louisa County-Freeman

Weather History for KLKU - September, 2013

Change the Weather History Date:

Monday, September 2, 2013

  Actual Average (KCHO) Record (KCHO)
Temperature  
Mean Temperature 82 °F 71 °F  
Max Temperature 91 °F 83 °F 105 °F (1953)
Min Temperature 73 °F 60 °F 44 °F (1994)
Degree Days  
Heating Degree Days 0 0  
Month to date heating degree days 0  
Since 1 July heating degree days 3  
Cooling Degree Days 17 7  
Month to date cooling degree days 14  
Year to date cooling degree days 924  
Growing Degree Days 32 (Base 50)    
Moisture  
Dew Point 73 °F    
Average Humidity 80    
Maximum Humidity 94    
Minimum Humidity 52    
Precipitation  
Precipitation 0.00 in 0.09 in 1.77 in (2003)
Month to date precipitation 0.19  
Year to date precipitation 28.33  
Sea Level Pressure  
Sea Level Pressure 29.80 in    
Wind  
Wind Speed 2 mph (SW)    
Max Wind Speed 7 mph    
Max Gust Speed -    
Visibility 8 miles    
Events Rain    
T = Trace of Precipitation, MM = Missing Value Source: NWS Daily Summary

Daily Weather History Graph

Daily Weather History Graph

Search for Another Location

Airport or City:

Trip Planner

Search our weather history database for the weather conditions in past years. The results will help you decide how hot, cold, wet, or windy it might be!

Date:

Astronomy

Sep. 02, 2013 Rise Set
Actual Time 6:42 AM EDT 7:39 PM EDT
Civil Twilight 6:15 AM EDT 8:06 PM EDT
Nautical Twilight 5:43 AM EDT 8:38 PM EDT
Astronomical Twilight 5:10 AM EDT 9:11 PM EDT
Moon 3:59 AM EDT (9/2) 5:50 PM EDT (9/2)
Length of Visible Light 13h 50m
Length of Day
12h 56m
Waning Crescent, 8% of the Moon is Illuminated
Sep 2
Waning Crescent
Sep 5
New
Sep 12
First Quarter
Sep 19
Full
Sep 26
Last Quarter

Hourly Weather History & Observations

Time (EDT) Temp. Heat Index Dew Point Humidity Pressure Visibility Wind Dir Wind Speed Gust Speed Precip Events Conditions
12:15 AM 73.4 °F - 71.6 °F 94% 29.82 in 10.0 mi SW 4.6 mph - N/A   Scattered Clouds
12:35 AM 73.4 °F - 71.6 °F 94% 29.82 in 10.0 mi West 3.5 mph - N/A   Scattered Clouds
12:55 AM 73.4 °F - 71.6 °F 94% 29.82 in 7.0 mi Calm Calm - N/A Rain Light Rain
1:15 AM 73.4 °F - 71.6 °F 94% 29.81 in 7.0 mi Calm Calm - N/A   Drizzle
1:35 AM 73.4 °F - 71.6 °F 94% 29.81 in 7.0 mi Calm Calm - N/A   Scattered Clouds
1:55 AM 73.4 °F - 71.6 °F 94% 29.80 in 7.0 mi Calm Calm - N/A   Scattered Clouds
2:15 AM 73.4 °F - 71.6 °F 94% 29.80 in 5.0 mi SW 3.5 mph - N/A   Mostly Cloudy
2:35 AM 73.4 °F - 71.6 °F 94% 29.79 in 5.0 mi Calm Calm - N/A   Mostly Cloudy
2:55 AM 73.4 °F - 71.6 °F 94% 29.80 in 5.0 mi Calm Calm - N/A   Mostly Cloudy
3:15 AM 73.4 °F - 71.6 °F 94% 29.80 in 3.0 mi Calm Calm - N/A   Overcast
3:35 AM 73.4 °F - 71.6 °F 94% 29.79 in 3.0 mi Calm Calm - N/A   Overcast
3:55 AM 73.4 °F - 71.6 °F 94% 29.79 in 3.0 mi Calm Calm - N/A   Overcast
4:15 AM 73.4 °F - 71.6 °F 94% 29.79 in 4.0 mi Calm Calm - N/A   Overcast
4:35 AM 73.4 °F - 71.6 °F 94% 29.79 in 5.0 mi Calm Calm - N/A   Overcast
4:55 AM 73.4 °F - 71.6 °F 94% 29.79 in 4.0 mi Calm Calm - N/A   Overcast
5:15 AM 73.4 °F - 71.6 °F 94% 29.79 in 4.0 mi Calm Calm - N/A   Overcast
5:35 AM 73.4 °F - 71.6 °F 94% 29.79 in 3.0 mi Calm Calm - N/A   Overcast
5:55 AM 73.4 °F - 71.6 °F 94% 29.79 in 3.0 mi Calm Calm - N/A   Overcast
6:15 AM 73.4 °F - 71.6 °F 94% 29.79 in 2.5 mi Calm Calm - N/A   Overcast
6:35 AM 73.4 °F - 71.6 °F 94% 29.79 in 3.0 mi Calm Calm - N/A   Overcast
6:55 AM 73.4 °F - 71.6 °F 94% 29.80 in 3.0 mi SW 3.5 mph - N/A   Overcast
7:15 AM 73.4 °F - 71.6 °F 94% 29.80 in 2.5 mi SSW 3.5 mph - N/A   Overcast
7:35 AM 73.4 °F - 71.6 °F 94% 29.81 in 2.5 mi Calm Calm - N/A   Overcast
7:55 AM 73.4 °F - 71.6 °F 94% 29.81 in 3.0 mi Calm Calm - N/A   Overcast
8:15 AM 75.2 °F - 73.4 °F 94% 29.82 in 4.0 mi WSW 3.5 mph - N/A   Overcast
8:35 AM 75.2 °F - 71.6 °F 89% 29.82 in 5.0 mi West 5.8 mph - N/A   Overcast
8:55 AM 75.2 °F - 73.4 °F 94% 29.83 in 10.0 mi SW 3.5 mph - N/A   Overcast
9:15 AM 75.2 °F - 71.6 °F 89% 29.83 in 10.0 mi SW 3.5 mph - N/A   Overcast
9:35 AM 78.8 °F - 71.6 °F 78% 29.83 in 10.0 mi SW 4.6 mph - N/A   Scattered Clouds
9:55 AM 78.8 °F - 73.4 °F 83% 29.84 in 10.0 mi Calm Calm - N/A   Clear
10:15 AM 80.6 °F 85.4 °F 73.4 °F 79% 29.84 in 10.0 mi Calm Calm - N/A   Clear
10:35 AM 82.4 °F 88.2 °F 73.4 °F 74% 29.84 in 10.0 mi WNW 4.6 mph - N/A   Clear
10:55 AM 82.4 °F 88.2 °F 73.4 °F 74% 29.84 in 10.0 mi Calm Calm - N/A   Clear
11:15 AM 84.2 °F 90.9 °F 73.4 °F 70% 29.84 in 10.0 mi Calm Calm - N/A   Clear
11:35 AM 84.2 °F 90.9 °F 73.4 °F 70% 29.84 in 10.0 mi Calm Calm - N/A   Clear
11:55 AM 86.0 °F 93.4 °F 73.4 °F 66% 29.84 in 10.0 mi Calm Calm - N/A   Clear
12:15 PM 86.0 °F 93.4 °F 73.4 °F 66% 29.83 in 10.0 mi South 3.5 mph - N/A   Scattered Clouds
12:35 PM 87.8 °F 95.6 °F 73.4 °F 62% 29.83 in 10.0 mi West 4.6 mph - N/A   Scattered Clouds
12:55 PM 86.0 °F 93.4 °F 73.4 °F 66% 29.83 in 10.0 mi WSW 4.6 mph - N/A   Clear
1:15 PM 87.8 °F 95.6 °F 73.4 °F 62% 29.83 in 10.0 mi WSW 6.9 mph - N/A   Clear
1:35 PM 86.0 °F 91.8 °F 71.6 °F 62% 29.83 in 10.0 mi Calm Calm - N/A   Mostly Cloudy
1:55 PM 87.8 °F 93.8 °F 71.6 °F 58% 29.82 in 10.0 mi SW 3.5 mph - N/A   Scattered Clouds
2:15 PM 87.8 °F 93.8 °F 71.6 °F 58% 29.82 in 10.0 mi SSW 3.5 mph - N/A   Scattered Clouds
2:35 PM 87.8 °F 95.6 °F 73.4 °F 62% 29.81 in 10.0 mi West 3.5 mph - N/A   Mostly Cloudy
2:55 PM 89.6 °F 96.2 °F 71.6 °F 55% 29.80 in 10.0 mi WSW 4.6 mph - N/A   Scattered Clouds
3:15 PM 89.6 °F 94.7 °F 69.8 °F 52% 29.79 in 10.0 mi Calm Calm - N/A   Clear
3:35 PM 91.4 °F 98.4 °F 71.6 °F 52% 29.79 in 10.0 mi WSW 3.5 mph - N/A   Scattered Clouds
3:55 PM 91.4 °F 98.4 °F 71.6 °F 52% 29.78 in 10.0 mi WSW 4.6 mph - N/A   Scattered Clouds
4:15 PM 87.8 °F 93.8 °F 71.6 °F 58% 29.78 in 10.0 mi SW 4.6 mph - N/A   Clear
4:35 PM 87.8 °F 93.8 °F 71.6 °F 58% 29.77 in 10.0 mi SW 5.8 mph - N/A   Clear
4:55 PM 87.8 °F 95.6 °F 73.4 °F 62% 29.77 in 10.0 mi Calm Calm - N/A   Clear
5:15 PM 87.8 °F 95.6 °F 73.4 °F 62% 29.77 in 10.0 mi South 3.5 mph - N/A   Clear
5:35 PM 87.8 °F 95.6 °F 73.4 °F 62% 29.77 in 10.0 mi SSW 3.5 mph - N/A   Clear
5:55 PM 87.8 °F 95.6 °F 73.4 °F 62% 29.77 in 10.0 mi Calm Calm - N/A   Clear
6:15 PM 84.2 °F 92.3 °F 75.2 °F 74% 29.77 in 10.0 mi Calm Calm - N/A   Clear
6:35 PM 84.2 °F 92.3 °F 75.2 °F 74% 29.77 in 10.0 mi Calm Calm - N/A   Clear
6:55 PM 84.2 °F 92.3 °F 75.2 °F 74% 29.77 in 10.0 mi Calm Calm - N/A   Clear
7:15 PM 82.4 °F 89.5 °F 75.2 °F 79% 29.77 in 10.0 mi Calm Calm - N/A   Clear
7:35 PM 80.6 °F 86.2 °F 75.2 °F 84% 29.77 in 10.0 mi Calm Calm - N/A   Clear
7:55 PM 80.6 °F 86.2 °F 75.2 °F 84% 29.78 in 10.0 mi Calm Calm - N/A   Clear
8:15 PM 80.6 °F 85.4 °F 73.4 °F 79% 29.78 in 10.0 mi SSE 3.5 mph - N/A   Clear
8:35 PM 80.6 °F 85.4 °F 73.4 °F 79% 29.78 in 10.0 mi SSE 3.5 mph - N/A   Clear
8:55 PM 78.8 °F - 73.4 °F 83% 29.78 in 10.0 mi SSE 3.5 mph - N/A   Clear
9:15 PM 78.8 °F - 73.4 °F 83% 29.78 in 10.0 mi South 4.6 mph - N/A   Clear
9:35 PM 78.8 °F - 73.4 °F 83% 29.79 in 10.0 mi Calm Calm - N/A   Clear
9:55 PM 78.8 °F - 73.4 °F 83% 29.79 in 10.0 mi Calm Calm - N/A   Clear
10:15 PM 78.8 °F - 73.4 °F 83% 29.79 in 10.0 mi Calm Calm - N/A   Clear
10:35 PM 78.8 °F - 73.4 °F 83% 29.78 in 10.0 mi Calm Calm - N/A   Clear
10:55 PM 77.0 °F - 73.4 °F 89% 29.79 in 10.0 mi Calm Calm - N/A   Clear
11:15 PM 75.2 °F - 71.6 °F 89% 29.79 in 10.0 mi Calm Calm - N/A   Clear
11:35 PM 77.0 °F - 71.6 °F 83% 29.79 in 10.0 mi Calm Calm - N/A   Clear
11:55 PM 75.2 °F - 71.6 °F 89% 29.79 in 10.0 mi Calm Calm - N/A   Clear